User: anonymous   Login
Location: Newark
(7.1028°S, 35.3258°W)
Time: 15:48:10
(UTC+00:00)
Language:

Tiros 1 - Orbit

View from above orbital plane
View from above orbital plane
View from above satellite
View from above satellite

Ground track
Ground track

The orbit data is extracted from the following two-line orbital elements,

1    29U 60002B   20056.55848305 -.00000114  00000-0  14046-4 0  9996
2    29  48.3794 121.3993 0023508 110.2306 250.1136 14.74342643202007
Epoch (UTC): 25 February 2020 13:24:12
Eccentricity: 0.0023508
inclination: 48.3794°
perigee height: 631 km
apogee height: 664 km
right ascension of ascending node: 121.3993°
argument of perigee: 110.2306°
revolutions per day: 14.74342643
mean anomaly at epoch: 250.1136°
orbit number at epoch: 20200

The dashed part of the orbit path shows where the satellite is in the earth's shadow,  

DLR